Iron Mountain, MI

12:14 AM CST on January 17, 2017 (GMT -0600)
Ford

Weather History for KIMT - July, 2013

Change the Weather History Date:

Friday, July 12, 2013

  Actual Average Record
Temperature  
Mean Temperature 68 °F -  
Max Temperature 82 °F 79 °F 102 °F (1936)
Min Temperature 53 °F 55 °F 40 °F (1940)
Cooling Degree Days 2    
Growing Degree Days 18 (Base 50)    
Moisture  
Dew Point 57 °F    
Average Humidity 67    
Maximum Humidity 94    
Minimum Humidity 42    
Precipitation  
Precipitation 0.00 in - - ()
Sea Level Pressure  
Sea Level Pressure 30.09 in    
Wind  
Wind Speed 5 mph (SSE)    
Max Wind Speed 15 mph    
Max Gust Speed 20 mph    
Visibility 9 miles    
Events      
Averages and records for this station are not official NWS values.
T = Trace of Precipitation, MM = Missing Value Source: NWS Daily Summary

Daily Weather History Graph

Daily Weather History Graph

Search for Another Location

Airport or City:

Trip Planner

Search our weather history database for the weather conditions in past years. The results will help you decide how hot, cold, wet, or windy it might be!

Date:

Astronomy

Jul. 12, 2013 Rise Set
Actual Time 5:14 AM CDT 8:41 PM CDT
Civil Twilight 4:37 AM CDT 9:18 PM CDT
Nautical Twilight 3:48 AM CDT 10:06 PM CDT
Astronomical Twilight 2:45 AM CDT 11:09 PM CDT
Moon 9:47 AM CDT (7/12) 10:33 PM CDT (7/12)
Length of Visible Light 16h 40m
Length of Day
15h 26m
Waxing Crescent, 17% of the Moon is Illuminated
Jul 12
Waxing Crescent
Jul 15
First Quarter
Jul 22
Full
Jul 29
Last Quarter
Aug 6
New

Hourly Weather History & Observations

Time (CDT) Temp. Heat Index Dew Point Humidity Pressure Visibility Wind Dir Wind Speed Gust Speed Precip Events Conditions
12:54 AM 60.1 °F - 54.0 °F 80% 30.08 in 10.0 mi SE 3.5 mph - N/A   Clear
1:54 AM 59.0 °F - 53.1 °F 81% 30.08 in 10.0 mi SE 3.5 mph - N/A   Clear
2:54 AM 57.0 °F - 54.0 °F 89% 30.09 in 10.0 mi Calm Calm - N/A   Clear
3:54 AM 55.0 °F - 53.1 °F 93% 30.09 in 10.0 mi Calm Calm - N/A   Clear
4:54 AM 53.1 °F - 51.1 °F 93% 30.10 in 1.2 mi Calm Calm - N/A   Clear
4:59 AM 53.6 °F - 51.8 °F 94% 30.11 in 4.0 mi Calm Calm - N/A   Clear
5:54 AM 55.0 °F - 53.1 °F 93% 30.12 in 10.0 mi Calm Calm - N/A   Clear
6:54 AM 60.1 °F - 55.0 °F 83% 30.12 in 10.0 mi SE 4.6 mph - N/A   Clear
7:54 AM 64.9 °F - 55.9 °F 73% 30.12 in 10.0 mi SE 3.5 mph - N/A   Clear
8:54 AM 71.1 °F - 59.0 °F 66% 30.13 in 10.0 mi SSE 5.8 mph - N/A   Clear
9:54 AM 75.0 °F - 61.0 °F 62% 30.12 in 10.0 mi SSE 6.9 mph - N/A   Clear
10:54 AM 78.1 °F - 62.1 °F 58% 30.11 in 10.0 mi South 9.2 mph - N/A   Clear
11:54 AM 80.1 °F 80.7 °F 59.0 °F 48% 30.10 in 10.0 mi South 11.5 mph 17.3 mph N/A   Partly Cloudy
12:54 PM 81.0 °F 81.1 °F 57.9 °F 45% 30.10 in 10.0 mi South 12.7 mph 19.6 mph N/A   Partly Cloudy
1:54 PM 82.9 °F 82.8 °F 59.0 °F 44% 30.09 in 10.0 mi South 10.4 mph - N/A   Scattered Clouds
2:54 PM 82.0 °F 81.7 °F 57.0 °F 42% 30.09 in 10.0 mi South 12.7 mph - N/A   Partly Cloudy
3:54 PM 82.0 °F 82.0 °F 57.9 °F 44% 30.08 in 10.0 mi South 15.0 mph - N/A   Clear
4:54 PM 82.0 °F 82.0 °F 57.9 °F 44% 30.07 in 10.0 mi South 11.5 mph - N/A   Clear
5:54 PM 80.1 °F 80.7 °F 59.0 °F 48% 30.07 in 10.0 mi South 8.1 mph - N/A   Clear
6:54 PM 78.1 °F - 59.0 °F 52% 30.06 in 10.0 mi South 10.4 mph - N/A   Clear
7:54 PM 75.0 °F - 59.0 °F 57% 30.06 in 10.0 mi SSE 6.9 mph - N/A   Clear
8:54 PM 72.0 °F - 57.9 °F 61% 30.06 in 10.0 mi SSE 6.9 mph - N/A   Clear
9:54 PM 69.1 °F - 57.9 °F 68% 30.06 in 10.0 mi SSE 6.9 mph - N/A   Clear
10:54 PM 66.9 °F - 57.0 °F 70% 30.06 in 10.0 mi SSE 4.6 mph - N/A   Clear
11:54 PM 64.0 °F - 55.9 °F 75% 30.07 in 10.0 mi SSE 3.5 mph - N/A   Clear